Theta_e
303 303 303 303 303 303 303 304 303 303 303 303 303 304 304 305 304 303 299 302 298 292 292 295 295 291 291 290 287 290 288 287 285 280 280 280 279 282 281 283 282 279 278 274 275 269 270 291 290 283 287 291 294 295
303 303 303 303 303 303 303 303 303 303 302 302 303 303 304 305 305 304 297 301 303 295 293 299 298 300 297 296 292 291 288 288 288 285 284 285 280 282 282 276 285 278 282 278 281 278 288 291 290 293 293 293 293 295
303 303 303 303 303 303 303 303 303 303 303 303 302 303 304 304 305 304 299 300 299 293 293 294 294 299 302 300 301 290 292 294 293 295 288 285 282 284 279 279 282 285 288 283 283 286 289 291 292 294 294 293 294 295
302 302 302 302 302 302 302 302 302 303 303 303 303 303 303 304 305 304 299 300 299 294 287 289 299 297 302 300 298 297 295 297 297 296 287 285 283 288 284 285 283 285 287 284 284 286 288 290 293 294 294 295 297 297
302 302 302 302 303 303 303 303 304 304 304 304 304 303 304 305 304 303 300 300 301 294 287 288 296 298 299 298 298 299 296 295 293 289 285 284 289 287 288 286 283 288 285 282 281 287 287 288 293 295 294 294 296 296
303 303 303 303 304 304 304 304 304 304 305 305 304 304 304 304 304 299 293 302 302 301 292 284 294 293 296 299 298 299 298 297 295 290 287 290 292 288 283 281 287 290 292 292 288 291 291 292 293 295 294 295 296 298
303 303 304 304 304 304 304 304 305 305 305 305 304 304 304 304 301 294 292 298 302 300 290 284 285 294 297 296 297 297 299 297 293 288 285 288 289 289 285 281 288 290 292 293 294 294 290 292 292 296 297 296 298 298
303 303 303 303 303 303 304 304 304 304 305 304 304 303 304 304 302 296 299 301 301 295 293 283 284 288 298 293 292 299 294 294 289 288 289 287 289 288 283 288 292 294 295 296 297 298 295 296 297 297 298 297 296 295
300 300 300 300 301 301 302 303 303 304 304 304 303 304 301 298 294 297 303 303 302 295 286 285 282 282 296 293 294 294 296 285 291 285 286 288 286 284 289 289 289 292 293 293 295 297 298 297 297 298 298 299 296 296
299 299 299 300 300 301 302 302 303 304 304 303 301 296 291 296 303 301 298 294 293 293 291 284 289 284 290 290 289 289 292 288 285 288 291 286 285 291 293 293 292 292 293 294 292 292 295 296 297 298 297 299 299 300
298 298 299 299 299 300 301 302 302 303 303 299 294 294 299 305 298 295 289 288 289 285 288 287 288 286 296 286 285 290 287 288 283 287 287 286 287 289 293 293 297 298 297 298 297 297 298 297 297 297 297 299 301 301
298 298 298 299 299 300 300 301 303 300 300 297 296 299 299 296 291 286 285 288 287 285 292 291 293 294 294 291 286 288 286 287 282 288 285 284 289 291 292 294 297 297 298 297 299 298 299 299 298 298 298 298 299 300
298 298 298 298 299 300 300 302 302 302 301 300 295 291 291 289 281 281 280 284 286 292 296 295 293 294 291 291 286 286 283 283 292 286 285 288 289 290 293 294 295 296 296 296 298 299 299 298 298 298 298 299 299 299
298 298 298 298 299 300 301 301 302 300 297 290 288 283 284 283 284 286 287 292 296 296 295 295 294 290 291 287 288 284 288 289 284 282 282 287 288 291 295 295 295 294 294 295 295 297 297 297 297 299 299 298 298 296
298 298 298 298 299 300 301 301 301 300 294 289 290 280 283 289 292 295 296 295 297 297 296 294 294 293 290 286 288 287 285 284 284 283 285 287 289 293 294 294 293 293 293 293 295 295 296 296 296 297 299 298 297 296
298 298 298 300 300 301 301 301 299 299 294 291 290 286 289 290 291 292 295 294 298 297 298 297 292 288 287 287 286 284 284 282 284 285 287 289 292 295 294 295 294 294 293 293 294 294 294 295 295 295 296 296 295 294
296 294 300 300 300 301 301 298 295 290 290 289 288 292 290 291 291 295 296 296 301 296 291 291 286 287 292 288 285 285 284 285 285 287 292 296 296 296 297 295 295 295 294 294 294 294 295 296 296 294 292 294 294 294
294 298 300 300 301 299 297 295 292 291 288 290 288 290 293 295 295 295 297 299 298 295 295 290 294 288 286 285 285 287 288 290 292 293 294 296 298 300 299 297 296 296 295 295 295 295 295 295 295 294 294 293 293 293
296 298 299 300 299 296 291 292 294 288 289 291 293 294 295 296 299 300 300 301 302 301 298 295 290 288 287 290 289 289 290 291 290 292 294 297 301 301 302 301 300 297 296 296 295 295 295 295 294 294 295 296 293 293
298 298 298 300 298 292 291 293 298 290 287 292 295 294 295 295 299 299 299 300 298 297 293 291 290 290 289 291 292 291 292 294 293 293 297 301 302 302 301 301 301 300 299 300 299 296 298 297 296 296 297 296 294 291
298 299 299 298 295 294 293 293 292 293 292 291 295 296 295 300 299 297 297 299 296 293 292 293 292 292 293 293 295 295 295 297 297 300 300 300 302 303 303 302 300 300 298 297 296 295 295 295 296 296 295 294 295 296
298 299 297 296 293 293 292 295 292 294 291 292 293 296 296 294 295 295 298 295 293 294 295 293 293 293 294 295 298 301 301 302 304 304 300 300 300 300 301 301 300 298 297 296 296 295 295 296 296 295 294 293 295 296
298 298 295 294 290 289 287 295 289 290 287 290 294 292 293 294 297 298 292 296 296 299 298 296 296 297 297 299 302 303 305 304 303 303 303 301 301 301 300 300 301 299 297 296 296 295 294 291 292 295 296 295 294 293
298 293 290 289 289 285 292 289 291 290 291 290 290 289 291 294 297 293 291 294 297 299 297 296 297 297 300 301 300 303 304 305 304 304 305 303 300 300 302 301 301 301 301 299 298 297 297 295 294 295 296 296 297 296
287 285 287 283 290 288 287 287 288 288 286 290 289 290 292 297 291 290 290 294 296 296 297 297 297 298 297 298 300 301 304 304 302 301 303 303 302 302 301 301 302 302 303 301 299 297 296 296 296 295 296 295 295 297
282 287 285 287 287 286 287 285 286 287 288 289 291 294 297 292 288 288 292 296 296 296 297 297 296 296 298 299 299 300 301 305 304 302 303 303 302 300 298 297 297 298 302 302 300 297 296 296 295 295 295 294 291 296
282 285 290 293 292 291 289 291 293 291 289 289 292 292 292 287 287 292 296 298 297 299 300 301 300 299 298 300 301 303 305 306 306 306 307 305 305 305 302 297 296 297 301 303 300 297 295 295 294 295 295 296 296 295
288 290 287 290 290 293 289 290 290 289 291 296 295 290 289 289 290 296 299 300 301 301 302 302 303 302 300 300 300 302 303 306 307 308 307 305 305 305 304 300 299 288 297 300 300 298 297 296 295 296 297 296 297 299
288 292 293 289 290 291 291 291 291 295 299 297 293 291 292 296 299 299 300 301 302 302 299 299 300 303 301 299 301 301 303 303 302 300 298 298 299 301 304 302 300 300 299 295 288 293 297 297 297 297 298 298 298 299
289 294 291 291 289 289 294 297 297 300 302 300 299 298 297 297 300 302 300 299 298 298 300 301 301 301 301 299 300 300 301 302 302 300 299 298 300 303 305 303 300 299 299 298 297 295 287 296 294 299 298 299 297 297
294 294 292 292 291 295 298 302 301 301 300 298 299 296 294 296 298 301 300 301 301 300 300 299 299 300 300 299 299 298 296 299 301 302 299 300 301 301 301 302 304 301 300 299 298 298 297 298 298 298 299 299 299 297
293 292 291 289 292 300 302 299 298 297 297 295 295 295 294 292 291 297 301 301 300 299 293 297 299 298 301 302 300 299 291 298 297 298 297 296 296 296 298 301 302 305 303 301 301 300 300 299 298 298 298 299 300 300
292 293 293 292 292 293 297 297 295 294 295 294 295 295 294 294 292 298 303 304 299 299 299 300 301 301 302 301 300 297 294 297 291 285 285 284 284 286 294 296 299 302 303 304 302 301 301 300 300 299 299 299 299 300
Wind_Speed
15 16 16 17 16 16 17 16 17 17 16 17 17 16 16 14 13 6 5 8 5 5 12 18 21 16 10 8 9 9 10 3 2 3 3 4 3 5 5 6 5 3 6 3 4 3 11 6 9 6 4 5 4 6
16 16 15 16 16 16 16 16 16 17 17 16 16 17 17 16 14 9 4 6 5 4 9 17 20 23 21 23 15 11 10 11 4 2 3 2 3 2 5 16 8 9 11 5 5 7 14 18 12 6 8 8 7 7
16 16 15 15 16 16 16 16 16 16 16 16 16 17 17 17 15 10 5 7 5 6 10 11 11 17 15 18 17 13 12 12 13 10 3 4 8 3 7 10 15 11 12 7 9 11 8 11 13 15 7 13 10 10
16 16 16 16 15 16 16 16 16 17 17 17 16 16 17 17 16 12 4 6 4 5 7 6 8 11 14 18 21 18 14 10 11 4 4 4 4 5 4 7 11 9 7 14 15 21 13 18 17 17 17 10 7 7
16 16 16 16 16 16 16 17 16 17 16 16 16 16 16 16 13 8 8 8 8 6 6 12 18 25 10 11 14 17 17 14 7 2 4 5 4 5 4 6 17 9 17 11 15 17 11 18 16 17 15 11 10 10
16 15 16 16 16 16 16 16 16 17 16 16 15 16 15 13 10 4 5 5 6 4 3 6 9 17 14 10 11 5 4 4 4 3 4 4 5 3 5 7 15 9 11 16 21 18 20 24 21 17 17 16 11 9
17 16 17 17 17 16 16 16 17 17 16 15 14 14 15 12 4 3 5 4 13 6 3 7 7 7 11 9 3 0 1 3 4 2 4 4 5 4 4 12 26 16 17 17 17 15 19 22 13 9 16 17 13 8
14 15 16 16 15 14 14 13 14 15 16 13 14 15 15 14 11 7 9 17 12 2 2 4 7 6 6 2 2 2 3 2 2 2 2 4 3 5 7 8 12 15 16 14 8 11 12 14 17 16 12 12 14 12
13 15 16 16 15 15 15 15 15 16 13 12 14 16 9 5 3 3 4 3 3 3 3 4 4 5 5 3 3 4 3 2 3 3 4 2 3 6 5 12 16 18 13 14 15 12 15 15 10 10 4 5 7 7
15 15 15 15 16 16 16 16 15 16 11 11 7 3 3 2 3 3 2 2 3 3 3 5 4 7 6 3 3 3 2 2 3 5 2 4 5 3 8 14 16 17 17 17 14 11 8 6 4 7 2 6 5 6
14 13 14 15 14 14 13 12 15 10 8 2 2 1 3 6 3 3 2 4 4 5 5 6 6 6 2 2 2 2 3 3 4 1 3 3 3 5 17 19 15 12 11 14 10 9 5 2 3 4 2 2 3 5
14 14 14 15 14 13 13 13 12 4 1 3 3 5 4 1 1 2 3 4 5 5 6 4 5 4 2 2 1 2 3 3 4 1 2 3 4 18 21 23 8 10 12 13 2 4 2 4 4 4 5 4 10 4
14 14 14 13 13 12 11 8 7 6 6 4 3 4 3 3 3 5 6 5 4 3 4 2 3 1 2 1 1 2 3 5 7 2 3 3 12 17 19 12 14 13 15 17 15 9 4 8 5 2 3 5 7 7
14 13 13 13 12 11 8 7 10 3 3 3 3 3 5 6 6 6 6 4 5 2 3 3 2 2 1 1 2 3 4 3 3 5 4 5 16 18 11 12 12 14 15 16 16 16 17 15 15 13 12 11 13 14
13 13 13 14 14 12 9 6 7 3 1 3 4 4 7 8 7 7 7 6 3 4 3 1 2 1 1 2 2 4 4 4 4 3 3 9 17 12 11 10 10 11 11 12 13 13 14 12 9 10 12 12 12 11
10 13 8 15 14 12 12 8 3 1 3 5 6 5 7 6 5 9 4 4 3 4 2 1 2 1 2 2 2 4 5 4 4 3 7 10 11 10 9 9 9 9 9 10 10 10 10 10 11 11 12 12 12 11
4 4 3 3 3 9 12 2 2 5 4 5 4 7 9 9 9 6 2 2 2 3 2 2 3 3 3 1 2 2 2 2 4 9 7 9 9 9 3 5 6 8 8 7 7 7 7 7 7 9 11 10 10 10
5 2 2 4 6 6 2 2 3 5 7 5 5 7 7 7 7 5 2 1 2 2 2 1 3 1 3 4 2 1 2 5 5 6 8 9 9 10 3 5 5 3 4 4 4 3 2 5 6 6 8 8 8 8
3 2 6 6 2 2 4 6 5 4 6 7 8 9 8 4 3 5 3 2 2 1 1 1 2 2 3 3 3 5 6 3 5 6 9 11 10 9 6 4 7 7 7 5 4 2 0 4 4 3 3 5 6 5
7 4 5 6 3 2 4 4 4 4 5 4 6 7 6 7 4 1 2 2 1 1 2 2 2 1 1 2 3 6 7 7 6 6 7 6 4 5 6 5 3 4 4 5 3 2 3 2 3 3 2 4 7 6
5 4 6 4 3 5 5 2 3 4 5 5 6 4 4 2 2 1 2 2 2 2 2 3 3 4 4 6 6 6 8 7 7 6 6 3 4 5 4 3 7 7 4 5 6 7 11 8 6 6 6 5 6 7
2 13 1 4 3 4 5 5 4 4 3 5 7 4 1 1 1 1 1 1 2 2 2 1 3 4 5 5 5 6 8 10 9 8 4 3 3 3 4 3 3 3 6 6 6 4 7 5 5 4 6 4 5 6
5 5 2 4 5 3 6 3 3 3 4 3 4 2 1 1 1 1 1 2 2 3 2 2 4 5 7 8 9 7 4 1 4 2 3 3 3 4 4 5 4 4 3 3 4 4 4 6 6 6 5 4 4 3
3 3 4 4 7 4 4 6 4 4 3 3 3 2 3 2 2 2 1 2 3 5 2 3 3 4 5 3 2 3 5 4 4 3 2 3 4 3 4 3 5 4 4 3 4 4 4 4 7 5 4 5 4 4
2 4 4 5 5 5 5 5 9 4 4 6 7 2 3 2 2 2 2 2 3 3 3 3 3 3 3 3 4 4 7 5 7 6 2 3 3 3 3 3 4 3 2 3 3 6 4 5 4 6 6 4 4 6
5 6 6 6 5 4 4 3 3 4 7 3 1 3 3 3 3 3 2 3 2 3 2 3 2 2 3 3 4 4 5 6 5 5 7 8 6 5 6 7 5 4 3 5 6 8 6 4 6 7 7 5 3 5
4 5 6 5 4 4 3 4 3 2 2 3 2 4 4 3 3 3 3 3 2 2 3 3 2 2 3 4 3 4 5 5 6 6 6 4 5 4 5 6 6 4 6 10 8 9 7 6 4 7 6 3 5 5
6 2 5 7 7 3 4 3 3 3 1 2 2 3 3 3 2 1 2 4 4 3 3 2 1 3 1 2 3 5 5 6 7 4 2 3 3 3 8 6 5 6 8 7 9 8 6 6 5 6 6 7 4 2
6 4 4 9 8 3 4 4 2 2 2 2 2 1 1 3 2 2 2 3 3 2 2 2 2 3 2 0 3 2 4 5 9 5 7 5 6 4 5 5 7 8 8 8 8 7 8 6 4 5 5 5 4 4
11 7 6 4 3 4 2 1 2 1 1 1 3 4 3 3 2 1 2 2 2 3 2 1 3 4 4 3 2 4 4 5 5 5 5 5 6 5 5 5 7 8 8 8 8 6 6 6 4 2 3 4 3 3
3 3 5 5 4 0 2 3 2 2 1 3 5 5 3 2 1 1 2 2 1 1 2 2 2 3 3 3 3 1 4 3 5 6 5 5 6 7 8 8 1 9 9 9 8 6 5 5 4 4 6 6 4 3
6 7 3 1 2 2 2 2 2 2 1 2 2 3 2 2 3 4 2 3 3 3 1 1 2 3 4 2 5 4 5 5 4 4 6 5 6 7 7 7 7 5 7 12 10 10 10 8 5 5 6 7 8 7
3 3 3 2 2 3 4 3 0 2 3 4 5 5 6 5 4 2 2 3 3 3 2 2 3 5 4 4 3 4 5 5 5 3 2 2 4 6 6 6 6 7 8 4 7 6 12 11 8 7 7 6 5 4
Wind_Direction
294 295 296 298 299 300 300 301 301 302 304 305 307 308 306 304 309 311 278 289 280 275 283 277 275 281 276 269 277 296 333 270 271 229 223 234 240 233 260 263 304 316 311 263 262 220 264 231 238 204 188 304 358 337
292 294 295 294 295 298 299 300 299 298 299 300 301 301 300 303 302 309 270 272 291 248 267 287 274 271 263 261 266 265 239 269 270 279 268 304 281 308 276 278 267 246 212 230 261 243 309 306 295 217 177 218 198 231
291 293 295 295 296 297 297 296 297 296 295 294 297 295 297 299 300 294 278 284 291 265 280 255 254 258 259 243 240 248 249 252 255 246 224 235 246 202 240 243 260 243 243 240 257 249 254 278 285 290 251 219 213 209
290 293 294 294 295 296 296 297 295 294 294 294 294 293 294 296 297 297 268 268 252 264 279 291 280 275 284 297 284 268 267 259 247 162 226 232 248 208 231 257 255 242 270 249 256 263 268 258 252 259 266 258 184 189
290 290 294 294 293 291 291 292 291 289 290 292 294 293 294 302 306 299 269 254 242 232 286 296 298 285 280 257 250 247 235 245 248 133 207 229 232 248 216 239 252 231 246 242 253 257 251 260 258 260 266 270 223 212
284 283 284 286 287 286 290 291 292 291 287 287 291 297 305 306 317 298 305 58 47 14 287 302 319 289 291 272 247 256 215 214 123 178 220 223 229 220 241 257 265 245 242 233 248 252 254 260 259 257 261 265 268 221
285 286 286 287 288 289 289 287 292 293 291 282 287 286 292 289 280 235 259 312 305 328 320 300 286 279 306 276 210 103 113 156 167 191 223 235 243 214 231 254 277 290 275 271 260 242 247 249 252 236 231 236 241 245
288 294 295 295 297 298 302 306 301 300 293 279 282 286 289 290 280 257 242 258 268 223 242 263 276 273 279 343 339 169 215 81 176 216 255 244 253 200 252 269 326 314 312 305 314 4 302 290 301 243 211 236 250 243
291 292 291 292 292 294 294 295 299 296 287 278 287 291 286 219 218 250 74 180 190 196 233 237 262 293 328 17 335 315 50 232 155 227 230 208 230 233 299 311 292 290 288 287 293 282 278 262 308 232 338 308 278 278
287 285 291 294 296 288 281 282 289 297 266 289 284 213 245 266 280 258 156 213 170 184 223 255 278 267 316 311 283 300 283 260 256 224 250 231 251 313 276 299 288 278 273 270 264 255 296 341 83 108 228 241 274 280
292 293 299 302 292 296 306 298 296 282 260 230 268 288 239 220 241 219 239 205 182 232 208 231 233 251 31 253 280 287 313 274 276 41 285 279 278 286 317 317 341 337 272 269 242 255 278 211 321 316 259 352 351 331
293 294 296 299 305 287 288 295 291 179 308 155 225 266 256 228 293 297 244 239 222 257 180 227 219 196 145 108 301 287 279 306 273 30 271 275 333 323 327 335 330 8 6 19 260 261 166 89 28 3 339 323 267 250
294 294 294 302 303 296 281 300 184 238 304 259 198 247 201 154 234 223 220 199 238 230 271 36 39 37 104 89 253 279 271 242 324 272 313 350 317 326 335 5 26 23 27 28 39 37 142 94 70 18 41 43 57 89
294 290 292 291 290 289 277 283 208 196 244 230 226 225 228 193 232 217 257 321 245 16 1 49 118 110 169 245 275 263 268 309 324 340 350 338 320 332 6 15 26 27 27 31 36 50 59 65 63 60 61 63 70 69
294 289 288 280 271 251 252 200 187 196 251 241 230 233 233 241 268 330 311 246 16 360 352 39 69 138 189 265 240 287 314 352 22 334 307 312 314 326 2 15 28 29 28 32 37 47 54 58 49 50 64 61 61 59
301 294 263 259 250 251 189 170 169 188 250 238 230 252 274 271 267 237 297 42 25 353 42 47 267 59 251 238 354 25 329 1 322 294 296 300 313 349 8 21 36 47 44 43 37 38 36 33 57 66 66 66 64 63
281 240 107 234 131 147 161 131 152 203 242 241 248 242 247 269 288 293 84 76 60 24 42 345 339 1 292 7 62 43 345 276 280 300 305 320 323 318 57 41 38 67 68 63 58 38 24 20 65 69 70 67 72 75
248 297 17 188 144 121 125 190 235 229 240 243 252 259 259 264 280 316 60 73 55 330 76 245 289 307 334 4 10 39 273 288 277 274 292 297 297 292 198 142 144 123 98 92 109 113 49 20 52 74 95 96 87 80
42 31 339 196 141 179 197 193 223 263 238 246 240 242 252 237 315 282 32 13 102 241 306 282 278 51 18 358 348 316 301 293 293 305 296 294 275 266 276 203 178 169 171 172 172 203 180 150 141 118 102 109 99 84
257 243 272 187 106 262 235 214 206 256 272 281 289 277 268 220 205 88 1 90 4 32 84 360 42 63 232 277 271 272 278 279 290 300 302 298 338 356 12 6 75 71 100 115 124 170 253 166 124 130 147 98 111 108
170 154 157 163 198 229 275 301 255 251 274 273 321 332 239 56 99 146 223 149 73 27 30 49 344 292 265 255 254 260 270 274 278 296 303 352 11 32 53 10 49 32 38 64 61 56 55 67 73 62 44 63 71 110
117 174 148 179 245 243 247 239 267 312 262 273 264 242 24 330 100 210 148 105 88 69 81 237 259 277 287 282 273 252 261 278 285 287 325 133 61 46 60 60 64 60 70 72 75 58 68 71 64 71 89 69 78 97
202 174 257 225 229 223 255 234 249 253 267 279 325 19 275 213 192 158 96 88 98 89 121 249 287 278 262 272 278 280 255 314 333 330 9 43 31 83 67 59 68 38 68 116 112 88 85 101 85 78 80 73 84 94
206 219 213 227 195 243 219 195 225 237 218 235 256 219 210 195 198 102 88 88 122 137 81 342 306 317 325 11 342 347 15 342 298 211 134 96 76 50 63 67 62 79 55 63 89 95 87 96 115 111 87 67 60 90
197 239 177 251 252 238 225 207 205 222 231 232 236 225 169 152 163 142 141 125 116 105 113 272 264 287 295 319 328 348 13 355 351 48 41 98 104 82 59 80 93 106 75 73 90 94 69 71 82 104 105 80 86 96
217 216 194 217 217 221 244 211 205 240 261 277 192 162 217 169 167 135 124 118 119 154 160 279 2 357 343 358 17 3 329 329 348 17 18 47 73 75 50 40 43 35 64 103 107 106 103 90 96 102 103 79 44 91
245 251 206 219 253 235 261 268 269 213 252 262 179 180 187 167 109 92 120 122 127 166 206 267 57 56 347 342 343 320 326 348 17 356 355 59 71 67 64 71 49 10 3 101 100 122 112 112 104 109 112 98 93 102
250 226 260 229 208 219 257 260 245 236 248 7 321 19 29 56 96 87 87 136 146 213 248 120 329 134 85 325 318 333 348 337 336 307 272 115 111 96 96 105 89 62 56 85 98 104 100 101 99 106 116 107 111 86
235 265 289 259 211 182 223 242 250 54 49 22 73 96 74 69 75 114 119 151 188 205 183 223 215 152 139 81 277 31 2 0 1 86 85 56 38 22 92 119 80 80 75 83 70 102 107 104 95 91 113 129 145 133
247 204 230 182 192 229 228 141 44 44 217 277 95 98 92 93 85 126 182 168 211 232 218 241 261 182 192 193 162 99 53 31 33 15 29 24 358 8 27 92 109 112 118 120 124 128 117 114 108 122 111 116 130 150
184 213 246 231 220 93 22 130 170 257 74 75 64 80 100 114 179 274 268 226 201 300 269 151 15 9 70 47 84 51 123 52 7 38 16 335 5 5 350 341 302 148 148 153 159 174 157 148 149 129 133 138 122 138
239 182 195 355 348 25 320 198 196 173 177 139 112 112 128 155 188 176 216 201 197 183 75 19 342 60 32 74 106 90 96 93 49 19 13 5 3 348 329 336 341 355 176 175 176 167 168 164 161 150 136 132 149 181
155 176 205 240 236 223 188 136 205 223 172 190 191 171 183 187 162 142 157 227 155 149 185 193 125 83 81 56 71 122 104 104 106 113 123 59 26 353 348 346 328 346 341 341 99 161 177 160 154 160 164 157 169 164